Flight Track Log - Related Links

Times and Time Zones

All times are in EST time to prevent confusion due to time zone crossing. See the N6356V flight status page for this flight to view local times or setup timezone preferences in your user account.

Time Position Orientation Groundspeed Altitude Reporting Facility
EST Latitude Longitude Course Direction KTS MPH feet Rate Location/Type
Thu 02:15:00 PM 47.9344 -97.1781 153° Southeast 126 145 1,500  Level Minneapolis Center
Thu 02:15:55 PM 47.9011 -97.1522 153° Southeast 152 175 2,900 1,443 Climbing Minneapolis Center
Thu 02:16:19 PM 47.8847 -97.1419 157° South 148 170 3,400 1,200 Climbing Minneapolis Center
Thu 02:16:55 PM 47.8594 -97.1247 155° Southeast 179 206 4,100 1,258 Climbing Minneapolis Center
Thu 02:17:21 PM 47.8369 -97.1239 179° South 170 196 4,700 1,574 Climbing Minneapolis Center
Thu 02:17:56 PM 47.8069 -97.1239 180° South 185 213 5,700 1,524 Climbing Minneapolis Center
Thu 02:18:24 PM 47.7864 -97.1236 179° South 181 208 6,300 1,300 Climbing Minneapolis Center
Thu 02:18:56 PM 47.7586 -97.1225 178° South 176 203 7,000 677 Climbing Minneapolis Center
Thu 02:19:26 PM 47.7300 -97.1194 176° South 187 215 7,000  Level Minneapolis Center
Thu 02:19:57 PM 47.6950 -97.1108 171° South 233 268 7,000  Level Minneapolis Center
Thu 02:20:28 PM 47.6633 -97.1025 170° South 227 261 7,000  Level Minneapolis Center
Thu 02:20:58 PM 47.6289 -97.0936 170° South 237 273 7,000  Level Minneapolis Center
Thu 02:21:30 PM 47.5964 -97.0831 168° South 233 268 7,000  Level Minneapolis Center
Thu 02:22:04 PM 47.5625 -97.0736 169° South 234 269 7,000  Level Minneapolis Center
Thu 02:22:32 PM 47.5306 -97.0647 169° South 231 266 7,000  Level Minneapolis Center
Thu 02:23:34 PM 47.4692 -97.0472 169° South 231 266 7,000  Level Minneapolis Center
Thu 02:24:36 PM 47.4028 -97.0289 169° South 234 269 7,000  Level Minneapolis Center
Thu 02:25:38 PM 47.3344 -97.0103 170° South 238 274 7,000  Level Minneapolis Center
Thu 02:26:40 PM 47.2697 -96.9806 163° South 234 269 7,000  Level Minneapolis Center
Thu 02:27:42 PM 47.2156 -96.9164 141° Southeast 244 281 7,000 -677 Level Minneapolis Center
Thu 02:28:44 PM 47.1947 -96.8208 108° East 248 285 5,600 -1,306 Descending Minneapolis Center
Thu 02:29:46 PM 47.1333 -96.8083 172° South 215 247 4,300 -1,056 Descending Minneapolis Center
Thu 02:30:49 PM 47.0806 -96.8161 186° South 198 228 3,400 -912 Descending Minneapolis Center
Thu 02:31:51 PM 47.0244 -96.8150 179° South 194 223 2,400 -677 Descending Minneapolis Center
Thu 02:32:53 PM 46.9850 -96.8153 180° South 146 168 2,000 -581 Descending Minneapolis Center
Thu 02:33:55 PM 46.9492 -96.8153 180° South 123 142 1,200 -774 Descending Minneapolis Center
Thu 02:35:00 PM 46.9207 -96.8158 193° South  Level Estimated

Login

Don't have an account? Register now (free) for customized features, flight alerts, and more!